York, PA

11:32 AM EDT on April 23, 2018 (GMT -0400)
York

Weather History for KTHV - December, 2012

Change the Weather History Date:

Thursday, December 6, 2012

  Actual Average Record
Temperature  
Mean Temperature 32 °F -  
Max Temperature 41 °F 0 °F 75 °F (1998)
Min Temperature 23 °F - 3 °F (2002)
Degree Days  
Heating Degree Days 33    
Moisture  
Dew Point 20 °F    
Average Humidity 62    
Maximum Humidity 81    
Minimum Humidity 43    
Precipitation  
Precipitation 0.00 in - - ()
Sea Level Pressure  
Sea Level Pressure 30.32 in    
Wind  
Wind Speed 2 mph (WSW)    
Max Wind Speed 6 mph    
Max Gust Speed -    
Visibility 10 miles    
Events      
Averages and records for this station are not official NWS values.
T = Trace of Precipitation, MM = Missing Value Source: NWS Daily Summary

Daily Weather History Graph

Daily Weather History Graph

Search for Another Location

Airport or City:

Astronomy

Dec. 06, 2012 Rise Set
Actual Time 7:15 AM EST 4:42 PM EST
Civil Twilight 6:44 AM EST 5:12 PM EST
Nautical Twilight 6:11 AM EST 5:46 PM EST
Astronomical Twilight 5:38 AM EST 6:19 PM EST
Moon No Moon Rise 12:07 PM EST (12/6)
Length of Visible Light 10h 27m
Length of Day
9h 27m
Waning Gibbous, 49% of the Moon is Illuminated
Dec 6
Waning Gibbous
Dec 13
New
Dec 20
First Quarter
Dec 28
Full
Jan 4
Last Quarter

Hourly Weather History & Observations

Time (EST) Temp. Windchill Dew Point Humidity Pressure Visibility Wind Dir Wind Speed Gust Speed Precip Events Conditions
12:53 AM 30.9 °F - 21.0 °F 67% 30.32 in 10.0 mi Calm Calm - N/A   Clear
2:53 AM 30.0 °F 24.1 °F 19.0 °F 64% 30.32 in 10.0 mi North 5.8 mph - N/A   Clear
3:53 AM 28.9 °F - 18.0 °F 64% 30.34 in 10.0 mi Calm Calm - N/A   Clear
4:53 AM 23.0 °F - 18.0 °F 81% 30.35 in 10.0 mi Calm Calm - N/A   Clear
5:53 AM 26.1 °F 21.9 °F 18.0 °F 71% 30.35 in 10.0 mi NW 3.5 mph - N/A   Clear
6:53 AM 24.1 °F 19.7 °F 17.1 °F 75% 30.37 in 10.0 mi NW 3.5 mph - N/A   Clear
7:53 AM 25.0 °F 20.7 °F 19.0 °F 78% 30.39 in 10.0 mi West 3.5 mph - N/A   Clear
8:53 AM 30.9 °F 25.2 °F 19.9 °F 64% 30.38 in 10.0 mi North 5.8 mph - N/A   Clear
9:53 AM 33.1 °F 27.7 °F 19.9 °F 59% 30.38 in 10.0 mi ENE 5.8 mph - N/A   Clear
10:53 AM 35.1 °F - 19.9 °F 54% 30.38 in 10.0 mi Calm Calm - N/A   Clear
11:53 AM 37.0 °F - 19.0 °F 48% 30.35 in 10.0 mi Calm Calm - N/A   Clear
12:53 PM 39.0 °F - 21.0 °F 49% 30.32 in 10.0 mi Calm Calm - N/A   Clear
1:53 PM 39.9 °F - 19.9 °F 45% 30.29 in 10.0 mi Calm Calm - N/A   Clear
2:53 PM 41.0 °F 39.0 °F 19.9 °F 43% 30.28 in 10.0 mi SW 3.5 mph - N/A   Clear
3:53 PM 41.0 °F - 19.9 °F 43% 30.27 in 10.0 mi Calm Calm - N/A   Clear
4:53 PM 36.0 °F 33.3 °F 19.9 °F 52% 30.28 in 10.0 mi South 3.5 mph - N/A   Clear
5:53 PM 28.9 °F - 23.0 °F 78% 30.28 in 10.0 mi Calm Calm - N/A   Clear
6:53 PM 32.0 °F 28.7 °F 21.0 °F 64% 30.28 in 10.0 mi South 3.5 mph - N/A   Clear
8:53 PM 33.1 °F - 21.0 °F 61% 30.28 in 10.0 mi Calm Calm - N/A   Clear
9:53 PM 30.9 °F - 21.9 °F 69% 30.27 in 10.0 mi Calm Calm - N/A   Clear
10:53 PM 33.1 °F 30.0 °F 21.9 °F 64% 30.27 in 10.0 mi South 3.5 mph - N/A   Clear
11:53 PM 33.1 °F 30.0 °F 23.0 °F 66% 30.25 in 10.0 mi South 3.5 mph - N/A   Clear